Location: Newark
(12.5331°N, 56.4669°W)
Time: 20:36:23
(UTC+00:00)

Envisat - Pass Details

Date: 02 February 2020
Orbit: 764 x 766 km, 98.1° (Epoch: 22 February)

Event Time Altitude Azimuth Distance (km) Brightness Sun altitude
Rises 22:21:40 0° 183° (S) 3,219 6.5 -8.8°
Reaches altitude 10° 22:24:06 10° 190° (S) 2,293 5.8 -9.3°
Maximum altitude 22:28:49 40° 259° (W) 1,111 4.6 -10.5°
Drops below altitude 10° 22:33:32 10° 329° (NNW) 2,293 5.7 -11.6°
Sets 22:35:58 0° 336° (NNW) 3,219 6.4 -12.1°
